Terminal Aerodrome Forecast
Issued by NWS

Home | Current Version | Previous Version | Text Only | Print | Product List | Glossary On
Versions: 1 2 3 4 5 6 7 8 9 10 11 12 13
000
FTUS45 KREV 221100
TAFMMH
TAF
KMMH 221127Z 2212/2312 30008KT P6SM FEW180
      AMD NOT SKED 2212/2214=

USA.gov is the U.S. government's official web portal to all federal, state and local government web resources and services.